owner,sensor,date,latitude,longitude,vertical_datum,sea_water_practical_salinity,qcFlag 
NERRS,ioos:station:NOAA.NERRS:gtmpcwq:1,2015-03-01T00:45:00Z,29.6671,-81.2574,1.84,17.7,1111122 
NERRS,ioos:station:NOAA.NERRS:gtmpcwq:1,2015-03-01T01:45:00Z,29.6671,-81.2574,1.84,18.5,1111122 
NERRS,ioos:station:NOAA.NERRS:gtmpcwq:1,2015-03-01T02:45:00Z,29.6671,-81.2574,1.78,16.6,1111122 
NERRS,ioos:station:NOAA.NERRS:gtmpcwq:1,2015-03-01T03:45:00Z,29.6671,-81.2574,1.7,12.3,1111122 
NERRS,ioos:station:NOAA.NERRS:gtmpcwq:1,2015-03-01T04:45:00Z,29.6671,-81.2574,1.61,12.4,1111122 
NERRS,ioos:station:NOAA.NERRS:gtmpcwq:1,2015-03-01T05:45:00Z,29.6671,-81.2574,1.52,12.0,1111122 
NERRS,ioos:station:NOAA.NERRS:gtmpcwq:1,2015-03-01T06:45:00Z,29.6671,-81.2574,1.46,9.4,1111122 
NERRS,ioos:station:NOAA.NERRS:gtmpcwq:1,2015-03-01T07:45:00Z,29.6671,-81.2574,1.43,6.7,1111122 
NERRS,ioos:station:NOAA.NERRS:gtmpcwq:1,2015-03-01T08:45:00Z,29.6671,-81.2574,1.5,6.1,1111122 
NERRS,ioos:station:NOAA.NERRS:gtmpcwq:1,2015-03-01T09:45:00Z,29.6671,-81.2574,1.61,9.4,1111122 
NERRS,ioos:station:NOAA.NERRS:gtmpcwq:1,2015-03-01T10:45:00Z,29.6671,-81.2574,1.74,12.1,1111122 
NERRS,ioos:station:NOAA.NERRS:gtmpcwq:1,2015-03-01T11:45:00Z,29.6671,-81.2574,1.83,17.2,1111122 
NERRS,ioos:station:NOAA.NERRS:gtmpcwq:1,2015-03-01T12:45:00Z,29.6671,-81.2574,1.9,21.8,1111122 
NERRS,ioos:station:NOAA.NERRS:gtmpcwq:1,2015-03-01T13:45:00Z,29.6671,-81.2574,1.93,23.2,1111122 
NERRS,ioos:station:NOAA.NERRS:gtmpcwq:1,2015-03-01T14:45:00Z,29.6671,-81.2574,1.89,23.1,1111122 
NERRS,ioos:station:NOAA.NERRS:gtmpcwq:1,2015-03-01T15:45:00Z,29.6671,-81.2574,1.82,20.3,1111122 
NERRS,ioos:station:NOAA.NERRS:gtmpcwq:1,2015-03-01T16:45:00Z,29.6671,-81.2574,1.74,16.4,1111122 
NERRS,ioos:station:NOAA.NERRS:gtmpcwq:1,2015-03-01T17:45:00Z,29.6671,-81.2574,1.64,10.7,1111122 
NERRS,ioos:station:NOAA.NERRS:gtmpcwq:1,2015-03-01T18:45:00Z,29.6671,-81.2574,1.54,10.7,1111122 
NERRS,ioos:station:NOAA.NERRS:gtmpcwq:1,2015-03-01T19:45:00Z,29.6671,-81.2574,1.47,9.5,1111122 
NERRS,ioos:station:NOAA.NERRS:gtmpcwq:1,2015-03-01T20:45:00Z,29.6671,-81.2574,1.43,7.7,1111122 
NERRS,ioos:station:NOAA.NERRS:gtmpcwq:1,2015-03-01T21:45:00Z,29.6671,-81.2574,1.47,5.9,1111122 
NERRS,ioos:station:NOAA.NERRS:gtmpcwq:1,2015-03-01T22:45:00Z,29.6671,-81.2574,1.56,7.8,1111122 
NERRS,ioos:station:NOAA.NERRS:gtmpcwq:1,2015-03-01T23:45:00Z,29.6671,-81.2574,1.67,10.2,1111122 
NERRS,ioos:station:NOAA.NERRS:gtmpcwq:1,2015-03-02T00:45:00Z,29.6671,-81.2574,1.75,13.3,1111122 
NERRS,ioos:station:NOAA.NERRS:gtmpcwq:1,2015-03-02T01:45:00Z,29.6671,-81.2574,1.78,13.5,1111122 
NERRS,ioos:station:NOAA.NERRS:gtmpcwq:1,2015-03-02T02:45:00Z,29.6671,-81.2574,1.74,13.4,1111122 
NERRS,ioos:station:NOAA.NERRS:gtmpcwq:1,2015-03-02T03:45:00Z,29.6671,-81.2574,1.65,10.8,1111122 
NERRS,ioos:station:NOAA.NERRS:gtmpcwq:1,2015-03-02T04:45:00Z,29.6671,-81.2574,1.56,10.5,1111122 
NERRS,ioos:station:NOAA.NERRS:gtmpcwq:1,2015-03-02T05:45:00Z,29.6671,-81.2574,1.48,11.6,1111122 
NERRS,ioos:station:NOAA.NERRS:gtmpcwq:1,2015-03-02T06:45:00Z,29.6671,-81.2574,1.4,10.9,1111122 
NERRS,ioos:station:NOAA.NERRS:gtmpcwq:1,2015-03-02T07:45:00Z,29.6671,-81.2574,1.34,9.7,1111122 
NERRS,ioos:station:NOAA.NERRS:gtmpcwq:1,2015-03-02T08:45:00Z,29.6671,-81.2574,1.3,7.6,1111122 
NERRS,ioos:station:NOAA.NERRS:gtmpcwq:1,2015-03-02T09:45:00Z,29.6671,-81.2574,1.33,4.2,1111122 
NERRS,ioos:station:NOAA.NERRS:gtmpcwq:1,2015-03-02T10:45:00Z,29.6671,-81.2574,1.43,4.8,1111122 
NERRS,ioos:station:NOAA.NERRS:gtmpcwq:1,2015-03-02T11:45:00Z,29.6671,-81.2574,1.55,7.5,1111122 
NERRS,ioos:station:NOAA.NERRS:gtmpcwq:1,2015-03-02T12:45:00Z,29.6671,-81.2574,1.68,11.4,1111122 
NERRS,ioos:station:NOAA.NERRS:gtmpcwq:1,2015-03-02T13:45:00Z,29.6671,-81.2574,1.76,13.2,1111122 
NERRS,ioos:station:NOAA.NERRS:gtmpcwq:1,2015-03-02T14:45:00Z,29.6671,-81.2574,1.76,14.9,1111122 
NERRS,ioos:station:NOAA.NERRS:gtmpcwq:1,2015-03-02T15:45:00Z,29.6671,-81.2574,1.69,13.0,1111122 
NERRS,ioos:station:NOAA.NERRS:gtmpcwq:1,2015-03-02T16:45:00Z,29.6671,-81.2574,1.59,10.1,1111122 
NERRS,ioos:station:NOAA.NERRS:gtmpcwq:1,2015-03-02T17:45:00Z,29.6671,-81.2574,1.5,11.1,1111122 
NERRS,ioos:station:NOAA.NERRS:gtmpcwq:1,2015-03-02T18:45:00Z,29.6671,-81.2574,1.42,10.5,1111122 
NERRS,ioos:station:NOAA.NERRS:gtmpcwq:1,2015-03-02T19:45:00Z,29.6671,-81.2574,1.35,9.8,1111122 
NERRS,ioos:station:NOAA.NERRS:gtmpcwq:1,2015-03-02T20:45:00Z,29.6671,-81.2574,1.3,7.8,1111122 
NERRS,ioos:station:NOAA.NERRS:gtmpcwq:1,2015-03-02T21:45:00Z,29.6671,-81.2574,1.26,6.8,1111122 
NERRS,ioos:station:NOAA.NERRS:gtmpcwq:1,2015-03-02T23:45:00Z,29.6671,-81.2574,1.38,5.3,1111122 
NERRS,ioos:station:NOAA.NERRS:gtmpcwq:1,2015-03-03T00:45:00Z,29.6671,-81.2574,1.49,7.4,1111122 
NERRS,ioos:station:NOAA.NERRS:gtmpcwq:1,2015-03-03T01:45:00Z,29.6671,-81.2574,1.6,7.9,1111122 
NERRS,ioos:station:NOAA.NERRS:gtmpcwq:1,2015-03-03T02:45:00Z,29.6671,-81.2574,1.63,10.0,1111122 
NERRS,ioos:station:NOAA.NERRS:gtmpcwq:1,2015-03-03T03:45:00Z,29.6671,-81.2574,1.56,8.3,1111122 
NERRS,ioos:station:NOAA.NERRS:gtmpcwq:1,2015-03-03T04:45:00Z,29.6671,-81.2574,1.48,9.6,1111122 
NERRS,ioos:station:NOAA.NERRS:gtmpcwq:1,2015-03-03T05:45:00Z,29.6671,-81.2574,1.4,9.6,1111122 
NERRS,ioos:station:NOAA.NERRS:gtmpcwq:1,2015-03-03T06:45:00Z,29.6671,-81.2574,1.33,9.1,1111122 
NERRS,ioos:station:NOAA.NERRS:gtmpcwq:1,2015-03-03T07:45:00Z,29.6671,-81.2574,1.28,8.3,1111122 
NERRS,ioos:station:NOAA.NERRS:gtmpcwq:1,2015-03-03T08:45:00Z,29.6671,-81.2574,1.23,7.6,1111122 
NERRS,ioos:station:NOAA.NERRS:gtmpcwq:1,2015-03-03T09:45:00Z,29.6671,-81.2574,1.19,6.6,1111122 
NERRS,ioos:station:NOAA.NERRS:gtmpcwq:1,2015-03-03T10:45:00Z,29.6671,-81.2574,1.23,3.7,1111122 
NERRS,ioos:station:NOAA.NERRS:gtmpcwq:1,2015-03-03T11:45:00Z,29.6671,-81.2574,1.32,3.1,1111122 
NERRS,ioos:station:NOAA.NERRS:gtmpcwq:1,2015-03-03T12:45:00Z,29.6671,-81.2574,1.44,5.7,1111122 
NERRS,ioos:station:NOAA.NERRS:gtmpcwq:1,2015-03-03T13:45:00Z,29.6671,-81.2574,1.58,9.3,1111122 
NERRS,ioos:station:NOAA.NERRS:gtmpcwq:1,2015-03-03T14:45:00Z,29.6671,-81.2574,1.67,11.2,1111122 
NERRS,ioos:station:NOAA.NERRS:gtmpcwq:1,2015-03-03T15:45:00Z,29.6671,-81.2574,1.66,12.4,1111122 
NERRS,ioos:station:NOAA.NERRS:gtmpcwq:1,2015-03-03T16:45:00Z,29.6671,-81.2574,1.59,8.9,1111122 
NERRS,ioos:station:NOAA.NERRS:gtmpcwq:1,2015-03-03T17:45:00Z,29.6671,-81.2574,1.49,9.7,1111122 
NERRS,ioos:station:NOAA.NERRS:gtmpcwq:1,2015-03-03T18:45:00Z,29.6671,-81.2574,1.4,9.8,1111122 
NERRS,ioos:station:NOAA.NERRS:gtmpcwq:1,2015-03-03T19:45:00Z,29.6671,-81.2574,1.33,9.3,1111122 
NERRS,ioos:station:NOAA.NERRS:gtmpcwq:1,2015-03-03T20:45:00Z,29.6671,-81.2574,1.28,8.5,1111122 
NERRS,ioos:station:NOAA.NERRS:gtmpcwq:1,2015-03-03T22:45:00Z,29.6671,-81.2574,1.21,5.4,1111122 
NERRS,ioos:station:NOAA.NERRS:gtmpcwq:1,2015-03-03T23:45:00Z,29.6671,-81.2574,1.27,2.4,1111122 
NERRS,ioos:station:NOAA.NERRS:gtmpcwq:1,2015-03-04T00:45:00Z,29.6671,-81.2574,1.37,4.3,1111122 
NERRS,ioos:station:NOAA.NERRS:gtmpcwq:1,2015-03-04T01:45:00Z,29.6671,-81.2574,1.49,5.7,1111122 
NERRS,ioos:station:NOAA.NERRS:gtmpcwq:1,2015-03-04T02:45:00Z,29.6671,-81.2574,1.6,10.4,1111122 
NERRS,ioos:station:NOAA.NERRS:gtmpcwq:1,2015-03-04T03:45:00Z,29.6671,-81.2574,1.6,11.1,1111122 
NERRS,ioos:station:NOAA.NERRS:gtmpcwq:1,2015-03-04T04:45:00Z,29.6671,-81.2574,1.52,8.3,1111122 
NERRS,ioos:station:NOAA.NERRS:gtmpcwq:1,2015-03-04T05:45:00Z,29.6671,-81.2574,1.44,9.9,1111122 
NERRS,ioos:station:NOAA.NERRS:gtmpcwq:1,2015-03-04T06:45:00Z,29.6671,-81.2574,1.36,9.7,1111122 
NERRS,ioos:station:NOAA.NERRS:gtmpcwq:1,2015-03-04T07:45:00Z,29.6671,-81.2574,1.29,9.0,1111122 
NERRS,ioos:station:NOAA.NERRS:gtmpcwq:1,2015-03-04T08:45:00Z,29.6671,-81.2574,1.23,8.3,1111122 
NERRS,ioos:station:NOAA.NERRS:gtmpcwq:1,2015-03-04T09:45:00Z,29.6671,-81.2574,1.19,7.6,1111122 
NERRS,ioos:station:NOAA.NERRS:gtmpcwq:1,2015-03-04T10:45:00Z,29.6671,-81.2574,1.18,5.9,1111122 
NERRS,ioos:station:NOAA.NERRS:gtmpcwq:1,2015-03-04T11:45:00Z,29.6671,-81.2574,1.25,2.5,1111122 
NERRS,ioos:station:NOAA.NERRS:gtmpcwq:1,2015-03-04T12:45:00Z,29.6671,-81.2574,1.36,3.9,1111122 
NERRS,ioos:station:NOAA.NERRS:gtmpcwq:1,2015-03-04T13:45:00Z,29.6671,-81.2574,1.5,7.2,1111122 
NERRS,ioos:station:NOAA.NERRS:gtmpcwq:1,2015-03-04T14:45:00Z,29.6671,-81.2574,1.62,12.2,1111122 
NERRS,ioos:station:NOAA.NERRS:gtmpcwq:1,2015-03-04T16:45:00Z,29.6671,-81.2574,1.61,13.9,1111122 
NERRS,ioos:station:NOAA.NERRS:gtmpcwq:1,2015-03-04T17:45:00Z,29.6671,-81.2574,1.52,13.0,1111122 
NERRS,ioos:station:NOAA.NERRS:gtmpcwq:1,2015-03-04T19:45:00Z,29.6671,-81.2574,1.35,12.7,1111122 
NERRS,ioos:station:NOAA.NERRS:gtmpcwq:1,2015-03-04T20:45:00Z,29.6671,-81.2574,1.28,12.1,1111122 
NERRS,ioos:station:NOAA.NERRS:gtmpcwq:1,2015-03-04T21:45:00Z,29.6671,-81.2574,1.23,11.6,1111122 
NERRS,ioos:station:NOAA.NERRS:gtmpcwq:1,2015-03-04T22:45:00Z,29.6671,-81.2574,1.18,10.5,1111122 
NERRS,ioos:station:NOAA.NERRS:gtmpcwq:1,2015-03-04T23:45:00Z,29.6671,-81.2574,1.18,6.2,1111122 
NERRS,ioos:station:NOAA.NERRS:gtmpcwq:1,2015-03-05T00:45:00Z,29.6671,-81.2574,1.25,2.7,1111122 
NERRS,ioos:station:NOAA.NERRS:gtmpcwq:1,2015-03-05T01:45:00Z,29.6671,-81.2574,1.35,7.2,1111122 
NERRS,ioos:station:NOAA.NERRS:gtmpcwq:1,2015-03-05T02:45:00Z,29.6671,-81.2574,1.47,11.0,1111122 
NERRS,ioos:station:NOAA.NERRS:gtmpcwq:1,2015-03-05T03:45:00Z,29.6671,-81.2574,1.55,12.2,1111122 
NERRS,ioos:station:NOAA.NERRS:gtmpcwq:1,2015-03-05T04:45:00Z,29.6671,-81.2574,1.52,12.8,1111122 
NERRS,ioos:station:NOAA.NERRS:gtmpcwq:1,2015-03-05T05:45:00Z,29.6671,-81.2574,1.43,12.6,1111122 
NERRS,ioos:station:NOAA.NERRS:gtmpcwq:1,2015-03-05T06:45:00Z,29.6671,-81.2574,1.36,12.3,1111122 
NERRS,ioos:station:NOAA.NERRS:gtmpcwq:1,2015-03-05T07:45:00Z,29.6671,-81.2574,1.29,12.1,1111122 
NERRS,ioos:station:NOAA.NERRS:gtmpcwq:1,2015-03-05T08:45:00Z,29.6671,-81.2574,1.23,11.5,1111122 
NERRS,ioos:station:NOAA.NERRS:gtmpcwq:1,2015-03-05T09:45:00Z,29.6671,-81.2574,1.18,10.8,1111122 
NERRS,ioos:station:NOAA.NERRS:gtmpcwq:1,2015-03-05T10:45:00Z,29.6671,-81.2574,1.14,10.3,1111122 
NERRS,ioos:station:NOAA.NERRS:gtmpcwq:1,2015-03-05T11:45:00Z,29.6671,-81.2574,1.13,9.3,1111122 
NERRS,ioos:station:NOAA.NERRS:gtmpcwq:1,2015-03-05T12:45:00Z,29.6671,-81.2574,1.19,3.2,1111122 
NERRS,ioos:station:NOAA.NERRS:gtmpcwq:1,2015-03-05T13:45:00Z,29.6671,-81.2574,1.28,7.3,1111122 
NERRS,ioos:station:NOAA.NERRS:gtmpcwq:1,2015-03-05T14:45:00Z,29.6671,-81.2574,1.39,9.2,1111122 
NERRS,ioos:station:NOAA.NERRS:gtmpcwq:1,2015-03-05T15:45:00Z,29.6671,-81.2574,1.5,11.8,1111122 
NERRS,ioos:station:NOAA.NERRS:gtmpcwq:1,2015-03-05T16:45:00Z,29.6671,-81.2574,1.5,13.9,1111122 
NERRS,ioos:station:NOAA.NERRS:gtmpcwq:1,2015-03-05T17:45:00Z,29.6671,-81.2574,1.43,14.2,1111122 
NERRS,ioos:station:NOAA.NERRS:gtmpcwq:1,2015-03-05T18:45:00Z,29.6671,-81.2574,1.34,12.9,1111122 
NERRS,ioos:station:NOAA.NERRS:gtmpcwq:1,2015-03-05T19:45:00Z,29.6671,-81.2574,1.26,12.9,1111122 
NERRS,ioos:station:NOAA.NERRS:gtmpcwq:1,2015-03-05T20:45:00Z,29.6671,-81.2574,1.2,12.4,1111122 
NERRS,ioos:station:NOAA.NERRS:gtmpcwq:1,2015-03-05T21:45:00Z,29.6671,-81.2574,1.15,12.4,1111122 
NERRS,ioos:station:NOAA.NERRS:gtmpcwq:1,2015-03-05T22:45:00Z,29.6671,-81.2574,1.13,4.2,1111122 
NERRS,ioos:station:NOAA.NERRS:gtmpcwq:1,2015-03-05T23:45:00Z,29.6671,-81.2574,1.11,8.9,1111122 
NERRS,ioos:station:NOAA.NERRS:gtmpcwq:1,2015-03-06T00:45:00Z,29.6671,-81.2574,1.12,6.6,1111122 
NERRS,ioos:station:NOAA.NERRS:gtmpcwq:1,2015-03-06T01:45:00Z,29.6671,-81.2574,1.18,7.0,1111122 
NERRS,ioos:station:NOAA.NERRS:gtmpcwq:1,2015-03-06T02:45:00Z,29.6671,-81.2574,1.28,10.4,1111122 
NERRS,ioos:station:NOAA.NERRS:gtmpcwq:1,2015-03-06T03:45:00Z,29.6671,-81.2574,1.39,11.0,1111122 
NERRS,ioos:station:NOAA.NERRS:gtmpcwq:1,2015-03-06T04:45:00Z,29.6671,-81.2574,1.47,11.4,1111122 
NERRS,ioos:station:NOAA.NERRS:gtmpcwq:1,2015-03-06T06:45:00Z,29.6671,-81.2574,1.36,13.4,1111122 
NERRS,ioos:station:NOAA.NERRS:gtmpcwq:1,2015-03-06T07:45:00Z,29.6671,-81.2574,1.3,12.8,1111122 
NERRS,ioos:station:NOAA.NERRS:gtmpcwq:1,2015-03-06T09:45:00Z,29.6671,-81.2574,1.22,11.8,1111122 
NERRS,ioos:station:NOAA.NERRS:gtmpcwq:1,2015-03-06T10:45:00Z,29.6671,-81.2574,1.2,11.6,1111122 
NERRS,ioos:station:NOAA.NERRS:gtmpcwq:1,2015-03-06T11:45:00Z,29.6671,-81.2574,1.17,11.0,1111122 
NERRS,ioos:station:NOAA.NERRS:gtmpcwq:1,2015-03-06T12:45:00Z,29.6671,-81.2574,1.19,9.8,1111122 
NERRS,ioos:station:NOAA.NERRS:gtmpcwq:1,2015-03-06T13:45:00Z,29.6671,-81.2574,1.28,5.2,1111122 
NERRS,ioos:station:NOAA.NERRS:gtmpcwq:1,2015-03-06T14:45:00Z,29.6671,-81.2574,1.41,5.1,1111122 
NERRS,ioos:station:NOAA.NERRS:gtmpcwq:1,2015-03-06T15:45:00Z,29.6671,-81.2574,1.57,8.7,1111122 
NERRS,ioos:station:NOAA.NERRS:gtmpcwq:1,2015-03-06T16:45:00Z,29.6671,-81.2574,1.69,10.2,1111122 
NERRS,ioos:station:NOAA.NERRS:gtmpcwq:1,2015-03-06T17:45:00Z,29.6671,-81.2574,1.7,12.0,1111122 
NERRS,ioos:station:NOAA.NERRS:gtmpcwq:1,2015-03-06T18:45:00Z,29.6671,-81.2574,1.63,10.2,1111122 
NERRS,ioos:station:NOAA.NERRS:gtmpcwq:1,2015-03-06T19:45:00Z,29.6671,-81.2574,1.54,9.0,1111122 
NERRS,ioos:station:NOAA.NERRS:gtmpcwq:1,2015-03-06T20:45:00Z,29.6671,-81.2574,1.45,8.2,1111122 
NERRS,ioos:station:NOAA.NERRS:gtmpcwq:1,2015-03-06T21:45:00Z,29.6671,-81.2574,1.39,9.4,1111122 
NERRS,ioos:station:NOAA.NERRS:gtmpcwq:1,2015-03-06T22:45:00Z,29.6671,-81.2574,1.34,8.6,1111122 
NERRS,ioos:station:NOAA.NERRS:gtmpcwq:1,2015-03-06T23:45:00Z,29.6671,-81.2574,1.32,7.6,1111122 
NERRS,ioos:station:NOAA.NERRS:gtmpcwq:1,2015-03-07T00:45:00Z,29.6671,-81.2574,1.37,5.3,1111122 
NERRS,ioos:station:NOAA.NERRS:gtmpcwq:1,2015-03-07T01:45:00Z,29.6671,-81.2574,1.48,7.1,1111122 
NERRS,ioos:station:NOAA.NERRS:gtmpcwq:1,2015-03-07T02:45:00Z,29.6671,-81.2574,1.64,10.0,1111122 
NERRS,ioos:station:NOAA.NERRS:gtmpcwq:1,2015-03-07T03:45:00Z,29.6671,-81.2574,1.77,13.8,1111122 
NERRS,ioos:station:NOAA.NERRS:gtmpcwq:1,2015-03-07T04:45:00Z,29.6671,-81.2574,1.84,15.8,1111122 
NERRS,ioos:station:NOAA.NERRS:gtmpcwq:1,2015-03-07T05:45:00Z,29.6671,-81.2574,1.88,17.3,1111122 
NERRS,ioos:station:NOAA.NERRS:gtmpcwq:1,2015-03-07T06:45:00Z,29.6671,-81.2574,1.84,17.6,1111122 
NERRS,ioos:station:NOAA.NERRS:gtmpcwq:1,2015-03-07T07:45:00Z,29.6671,-81.2574,1.76,14.2,1111122 
NERRS,ioos:station:NOAA.NERRS:gtmpcwq:1,2015-03-07T08:45:00Z,29.6671,-81.2574,1.66,11.2,1111122 
NERRS,ioos:station:NOAA.NERRS:gtmpcwq:1,2015-03-07T09:45:00Z,29.6671,-81.2574,1.57,9.1,1111122 
NERRS,ioos:station:NOAA.NERRS:gtmpcwq:1,2015-03-07T10:45:00Z,29.6671,-81.2574,1.5,7.6,1111122 
NERRS,ioos:station:NOAA.NERRS:gtmpcwq:1,2015-03-07T11:45:00Z,29.6671,-81.2574,1.44,7.8,1111122 
NERRS,ioos:station:NOAA.NERRS:gtmpcwq:1,2015-03-07T12:45:00Z,29.6671,-81.2574,1.44,7.4,1111122 
NERRS,ioos:station:NOAA.NERRS:gtmpcwq:1,2015-03-07T13:45:00Z,29.6671,-81.2574,1.53,8.2,1111122 
NERRS,ioos:station:NOAA.NERRS:gtmpcwq:1,2015-03-07T14:45:00Z,29.6671,-81.2574,1.64,9.5,1111122 
NERRS,ioos:station:NOAA.NERRS:gtmpcwq:1,2015-03-07T15:45:00Z,29.6671,-81.2574,1.76,13.5,1111122 
NERRS,ioos:station:NOAA.NERRS:gtmpcwq:1,2015-03-07T16:45:00Z,29.6671,-81.2574,1.83,15.2,1111122 
NERRS,ioos:station:NOAA.NERRS:gtmpcwq:1,2015-03-07T17:45:00Z,29.6671,-81.2574,1.86,17.6,1111122 
NERRS,ioos:station:NOAA.NERRS:gtmpcwq:1,2015-03-07T18:45:00Z,29.6671,-81.2574,1.82,18.1,1111122 
NERRS,ioos:station:NOAA.NERRS:gtmpcwq:1,2015-03-07T19:45:00Z,29.6671,-81.2574,1.73,13.7,1111122 
NERRS,ioos:station:NOAA.NERRS:gtmpcwq:1,2015-03-07T20:45:00Z,29.6671,-81.2574,1.64,10.3,1111122 
NERRS,ioos:station:NOAA.NERRS:gtmpcwq:1,2015-03-07T21:45:00Z,29.6671,-81.2574,1.54,8.1,1111122 
NERRS,ioos:station:NOAA.NERRS:gtmpcwq:1,2015-03-07T22:45:00Z,29.6671,-81.2574,1.46,7.0,1111122 
NERRS,ioos:station:NOAA.NERRS:gtmpcwq:1,2015-03-07T23:45:00Z,29.6671,-81.2574,1.39,6.8,1111122 
NERRS,ioos:station:NOAA.NERRS:gtmpcwq:1,2015-03-08T00:45:00Z,29.6671,-81.2574,1.36,6.9,1111122 
NERRS,ioos:station:NOAA.NERRS:gtmpcwq:1,2015-03-08T01:45:00Z,29.6671,-81.2574,1.43,5.8,1111122 
NERRS,ioos:station:NOAA.NERRS:gtmpcwq:1,2015-03-08T02:45:00Z,29.6671,-81.2574,1.55,7.7,1111122 
NERRS,ioos:station:NOAA.NERRS:gtmpcwq:1,2015-03-08T03:45:00Z,29.6671,-81.2574,1.67,11.5,1111122 
NERRS,ioos:station:NOAA.NERRS:gtmpcwq:1,2015-03-08T04:45:00Z,29.6671,-81.2574,1.77,13.5,1111122 
NERRS,ioos:station:NOAA.NERRS:gtmpcwq:1,2015-03-08T06:45:00Z,29.6671,-81.2574,1.77,15.5,1111122 
NERRS,ioos:station:NOAA.NERRS:gtmpcwq:1,2015-03-08T07:45:00Z,29.6671,-81.2574,1.68,13.3,1111122 
NERRS,ioos:station:NOAA.NERRS:gtmpcwq:1,2015-03-08T08:45:00Z,29.6671,-81.2574,1.58,10.4,1111122 
NERRS,ioos:station:NOAA.NERRS:gtmpcwq:1,2015-03-08T09:45:00Z,29.6671,-81.2574,1.49,8.3,1111122 
NERRS,ioos:station:NOAA.NERRS:gtmpcwq:1,2015-03-08T10:45:00Z,29.6671,-81.2574,1.42,9.5,1111122 
NERRS,ioos:station:NOAA.NERRS:gtmpcwq:1,2015-03-08T11:45:00Z,29.6671,-81.2574,1.36,8.9,1111122 
NERRS,ioos:station:NOAA.NERRS:gtmpcwq:1,2015-03-08T12:45:00Z,29.6671,-81.2574,1.32,7.4,1111122 
NERRS,ioos:station:NOAA.NERRS:gtmpcwq:1,2015-03-08T13:45:00Z,29.6671,-81.2574,1.35,5.0,1111122 
NERRS,ioos:station:NOAA.NERRS:gtmpcwq:1,2015-03-08T14:45:00Z,29.6671,-81.2574,1.44,6.1,1111122 
NERRS,ioos:station:NOAA.NERRS:gtmpcwq:1,2015-03-08T15:45:00Z,29.6671,-81.2574,1.56,8.5,1111122 
NERRS,ioos:station:NOAA.NERRS:gtmpcwq:1,2015-03-08T16:45:00Z,29.6671,-81.2574,1.67,11.8,1111122 
NERRS,ioos:station:NOAA.NERRS:gtmpcwq:1,2015-03-08T17:45:00Z,29.6671,-81.2574,1.72,13.6,1111122 
NERRS,ioos:station:NOAA.NERRS:gtmpcwq:1,2015-03-08T18:45:00Z,29.6671,-81.2574,1.68,13.9,1111122 
NERRS,ioos:station:NOAA.NERRS:gtmpcwq:1,2015-03-08T19:45:00Z,29.6671,-81.2574,1.59,11.2,1111122 
NERRS,ioos:station:NOAA.NERRS:gtmpcwq:1,2015-03-08T20:45:00Z,29.6671,-81.2574,1.5,10.3,1111122 
NERRS,ioos:station:NOAA.NERRS:gtmpcwq:1,2015-03-08T21:45:00Z,29.6671,-81.2574,1.42,11.1,1111122 
NERRS,ioos:station:NOAA.NERRS:gtmpcwq:1,2015-03-08T22:45:00Z,29.6671,-81.2574,1.35,10.4,1111122 
NERRS,ioos:station:NOAA.NERRS:gtmpcwq:1,2015-03-08T23:45:00Z,29.6671,-81.2574,1.29,9.3,1111122 
NERRS,ioos:station:NOAA.NERRS:gtmpcwq:1,2015-03-09T00:45:00Z,29.6671,-81.2574,1.24,7.6,1111122 
NERRS,ioos:station:NOAA.NERRS:gtmpcwq:1,2015-03-09T01:45:00Z,29.6671,-81.2574,1.25,5.9,1111122 
NERRS,ioos:station:NOAA.NERRS:gtmpcwq:1,2015-03-09T02:45:00Z,29.6671,-81.2574,1.33,4.5,1111122 
NERRS,ioos:station:NOAA.NERRS:gtmpcwq:1,2015-03-09T03:45:00Z,29.6671,-81.2574,1.44,6.3,1111122 
NERRS,ioos:station:NOAA.NERRS:gtmpcwq:1,2015-03-09T04:45:00Z,29.6671,-81.2574,1.57,9.9,1111122 
NERRS,ioos:station:NOAA.NERRS:gtmpcwq:1,2015-03-09T05:45:00Z,29.6671,-81.2574,1.67,12.5,1111122 
NERRS,ioos:station:NOAA.NERRS:gtmpcwq:1,2015-03-09T06:45:00Z,29.6671,-81.2574,1.68,13.6,1111122 
NERRS,ioos:station:NOAA.NERRS:gtmpcwq:1,2015-03-09T07:45:00Z,29.6671,-81.2574,1.6,12.2,1111122 
NERRS,ioos:station:NOAA.NERRS:gtmpcwq:1,2015-03-09T08:45:00Z,29.6671,-81.2574,1.51,10.0,1111122 
NERRS,ioos:station:NOAA.NERRS:gtmpcwq:1,2015-03-09T09:45:00Z,29.6671,-81.2574,1.43,11.1,1111122 
NERRS,ioos:station:NOAA.NERRS:gtmpcwq:1,2015-03-09T10:45:00Z,29.6671,-81.2574,1.36,11.4,1111122 
NERRS,ioos:station:NOAA.NERRS:gtmpcwq:1,2015-03-09T11:45:00Z,29.6671,-81.2574,1.3,10.5,1111122 
NERRS,ioos:station:NOAA.NERRS:gtmpcwq:1,2015-03-09T12:45:00Z,29.6671,-81.2574,1.25,9.2,1111122 
NERRS,ioos:station:NOAA.NERRS:gtmpcwq:1,2015-03-09T13:45:00Z,29.6671,-81.2574,1.23,7.4,1111122 
NERRS,ioos:station:NOAA.NERRS:gtmpcwq:1,2015-03-09T14:45:00Z,29.6671,-81.2574,1.28,4.6,1111122 
NERRS,ioos:station:NOAA.NERRS:gtmpcwq:1,2015-03-09T15:45:00Z,29.6671,-81.2574,1.38,7.0,1111122 
NERRS,ioos:station:NOAA.NERRS:gtmpcwq:1,2015-03-09T16:45:00Z,29.6671,-81.2574,1.49,8.6,1111122 
NERRS,ioos:station:NOAA.NERRS:gtmpcwq:1,2015-03-09T17:45:00Z,29.6671,-81.2574,1.59,10.1,1111122 
NERRS,ioos:station:NOAA.NERRS:gtmpcwq:1,2015-03-09T18:45:00Z,29.6671,-81.2574,1.61,12.9,1111122 
NERRS,ioos:station:NOAA.NERRS:gtmpcwq:1,2015-03-09T19:45:00Z,29.6671,-81.2574,1.54,11.3,1111122 
NERRS,ioos:station:NOAA.NERRS:gtmpcwq:1,2015-03-10T00:45:00Z,29.6671,-81.2574,1.22,9.0,1111122 
NERRS,ioos:station:NOAA.NERRS:gtmpcwq:1,2015-03-10T02:45:00Z,29.6671,-81.2574,1.24,3.2,1111122 
NERRS,ioos:station:NOAA.NERRS:gtmpcwq:1,2015-03-10T03:45:00Z,29.6671,-81.2574,1.31,6.8,1111122 
NERRS,ioos:station:NOAA.NERRS:gtmpcwq:1,2015-03-10T04:45:00Z,29.6671,-81.2574,1.42,8.2,1111122 
NERRS,ioos:station:NOAA.NERRS:gtmpcwq:1,2015-03-10T06:45:00Z,29.6671,-81.2574,1.64,12.8,1111122 
NERRS,ioos:station:NOAA.NERRS:gtmpcwq:1,2015-03-10T07:45:00Z,29.6671,-81.2574,1.61,13.8,1111122 
NERRS,ioos:station:NOAA.NERRS:gtmpcwq:1,2015-03-10T08:45:00Z,29.6671,-81.2574,1.52,12.1,1111122 
NERRS,ioos:station:NOAA.NERRS:gtmpcwq:1,2015-03-10T09:45:00Z,29.6671,-81.2574,1.44,12.1,1111122 
NERRS,ioos:station:NOAA.NERRS:gtmpcwq:1,2015-03-10T10:45:00Z,29.6671,-81.2574,1.37,11.9,1111122 
NERRS,ioos:station:NOAA.NERRS:gtmpcwq:1,2015-03-10T11:45:00Z,29.6671,-81.2574,1.31,11.3,1111122 
NERRS,ioos:station:NOAA.NERRS:gtmpcwq:1,2015-03-10T13:45:00Z,29.6671,-81.2574,1.22,9.4,1111122 
NERRS,ioos:station:NOAA.NERRS:gtmpcwq:1,2015-03-10T14:45:00Z,29.6671,-81.2574,1.22,7.4,1111122 
NERRS,ioos:station:NOAA.NERRS:gtmpcwq:1,2015-03-10T15:45:00Z,29.6671,-81.2574,1.29,5.2,1111122 
NERRS,ioos:station:NOAA.NERRS:gtmpcwq:1,2015-03-10T16:45:00Z,29.6671,-81.2574,1.38,7.6,1111122 
NERRS,ioos:station:NOAA.NERRS:gtmpcwq:1,2015-03-10T17:45:00Z,29.6671,-81.2574,1.49,9.6,1111122 
NERRS,ioos:station:NOAA.NERRS:gtmpcwq:1,2015-03-10T18:45:00Z,29.6671,-81.2574,1.57,12.3,1111122 
NERRS,ioos:station:NOAA.NERRS:gtmpcwq:1,2015-03-10T19:45:00Z,29.6671,-81.2574,1.56,12.7,1111122 
NERRS,ioos:station:NOAA.NERRS:gtmpcwq:1,2015-03-10T20:45:00Z,29.6671,-81.2574,1.49,11.0,1111122 
NERRS,ioos:station:NOAA.NERRS:gtmpcwq:1,2015-03-11T01:45:00Z,29.6671,-81.2574,1.21,8.8,1111122 
NERRS,ioos:station:NOAA.NERRS:gtmpcwq:1,2015-03-11T02:45:00Z,29.6671,-81.2574,1.19,8.5,1111122 
NERRS,ioos:station:NOAA.NERRS:gtmpcwq:1,2015-03-11T04:45:00Z,29.6671,-81.2574,1.34,6.1,1111122 
NERRS,ioos:station:NOAA.NERRS:gtmpcwq:1,2015-03-11T06:45:00Z,29.6671,-81.2574,1.58,13.7,1111122 
NERRS,ioos:station:NOAA.NERRS:gtmpcwq:1,2015-03-11T07:45:00Z,29.6671,-81.2574,1.63,15.9,1111122 
NERRS,ioos:station:NOAA.NERRS:gtmpcwq:1,2015-03-11T08:45:00Z,29.6671,-81.2574,1.56,14.2,1111122 
NERRS,ioos:station:NOAA.NERRS:gtmpcwq:1,2015-03-11T09:45:00Z,29.6671,-81.2574,1.48,15.0,1111122 
NERRS,ioos:station:NOAA.NERRS:gtmpcwq:1,2015-03-11T11:45:00Z,29.6671,-81.2574,1.34,13.5,1111122 
NERRS,ioos:station:NOAA.NERRS:gtmpcwq:1,2015-03-11T12:45:00Z,29.6671,-81.2574,1.29,12.5,1111122 
NERRS,ioos:station:NOAA.NERRS:gtmpcwq:1,2015-03-11T13:45:00Z,29.6671,-81.2574,1.24,11.7,1111122 
NERRS,ioos:station:NOAA.NERRS:gtmpcwq:1,2015-03-11T14:45:00Z,29.6671,-81.2574,1.21,10.4,1111122 
NERRS,ioos:station:NOAA.NERRS:gtmpcwq:1,2015-03-11T15:45:00Z,29.6671,-81.2574,1.21,9.7,1111122 
NERRS,ioos:station:NOAA.NERRS:gtmpcwq:1,2015-03-11T16:45:00Z,29.6671,-81.2574,1.27,6.3,1111122 
NERRS,ioos:station:NOAA.NERRS:gtmpcwq:1,2015-03-11T17:45:00Z,29.6671,-81.2574,1.35,9.0,1111122 
NERRS,ioos:station:NOAA.NERRS:gtmpcwq:1,2015-03-11T18:45:00Z,29.6671,-81.2574,1.44,10.7,1111122 
NERRS,ioos:station:NOAA.NERRS:gtmpcwq:1,2015-03-11T19:45:00Z,29.6671,-81.2574,1.51,12.2,1111122 
NERRS,ioos:station:NOAA.NERRS:gtmpcwq:1,2015-03-11T20:45:00Z,29.6671,-81.2574,1.49,12.8,1111122 
NERRS,ioos:station:NOAA.NERRS:gtmpcwq:1,2015-03-11T21:45:00Z,29.6671,-81.2574,1.41,13.2,1111122 
NERRS,ioos:station:NOAA.NERRS:gtmpcwq:1,2015-03-11T22:45:00Z,29.6671,-81.2574,1.35,12.1,1111122 
NERRS,ioos:station:NOAA.NERRS:gtmpcwq:1,2015-03-11T23:45:00Z,29.6671,-81.2574,1.29,12.1,1111122 
NERRS,ioos:station:NOAA.NERRS:gtmpcwq:1,2015-03-12T00:45:00Z,29.6671,-81.2574,1.24,11.3,1111122 
NERRS,ioos:station:NOAA.NERRS:gtmpcwq:1,2015-03-12T01:45:00Z,29.6671,-81.2574,1.2,10.8,1111122 
NERRS,ioos:station:NOAA.NERRS:gtmpcwq:1,2015-03-12T02:45:00Z,29.6671,-81.2574,1.17,10.3,1111122 
NERRS,ioos:station:NOAA.NERRS:gtmpcwq:1,2015-03-12T03:45:00Z,29.6671,-81.2574,1.18,8.2,1111122 